Regional Weather Roundup
Issued by NWS

Home | Current Version | Previous Version | Text Only | Print | Product List | Glossary On
Versions: 1 2 3 4 5 6 7 8 9 10 11 12 13 14 15 16 17 18 19 20 21 22 23 24 25 26 27 28 29 30 31 32 33 34 35 36 37 38 39 40 41 42 43 44 45 46 47 48 49 50
000
ASUS42 KFFC 011303
RWRGA
WEATHER ROUNDUP FOR GEORGIA
NATIONAL WEATHER SERVICE PEACHTREE CITY GA
900 AM EDT FRI JUL 01 2016

NOTE: "FAIR" INDICATES FEW OR NO CLOUDS BELOW 12,000 FEET WITH NO
SIGNIFICANT WEATHER AND/OR OBSTRUCTIONS TO VISIBILITY.

* = USE WITH CAUTION. THE STATIONS MARKED WITH AN ASTERISK MAY NOT
REPORT WEATHER SUCH AS PRECIPITATION, FOG, OR THUNDER AND ARE NOT
QUALITY CONTROLLED BY NWS.

THE REMARK "TC" DENOTES TEMPERATURE READING IN DEGREES CELSIUS.

GAZ001>058-011400-
NORTH GEORGIA

CITY           SKY/WX    TMP DP  RH WIND       PRES   REMARKS
ATLANTA        PTSUNNY   77  69  76 W8        30.04R
ATHENS         CLOUDY    76  74  93 CALM      30.03R
CHAMBLEE       PTSUNNY   78  68  71 SW7       30.04R
PEACHTREE CITY CLOUDY    76  72  87 W5        30.04R
ROME           SUNNY     72  62  71 CALM      30.03R
WEST ATLANTA   PTSUNNY   77  69  76 VRB3      30.04R
GAINESVILLE    PTSUNNY   76  71  85 NW7       30.06S
CARTERSVILLE   SUNNY     74  69  85 VRB5      30.04R


CITY           SKY/WX    TMP DP  RH WIND       PRES   REMARKS
DALTON*        SUNNY     73  70  88 CALM      30.03S
LAWRENCEVILLE* PTSUNNY   75  72  88 W7        30.05R
MARIETTA       MOSUNNY   76  69  78 VRB6      30.04R
KENNESAW*      MOSUNNY   75  66  73 W7        30.01S
CANTON*        MOSUNNY   75  63  64 CALM      30.06S
$$

GAZ059>098-102>109-011400-
CENTRAL GEORGIA

CITY           SKY/WX    TMP DP  RH WIND       PRES   REMARKS
AUGUSTA-BUSH   CLOUDY    75  72  90 SW6       30.02R
AUGUSTA-DANIEL CLOUDY    77  71  82 SW3       30.04R
COLUMBUS       CLOUDY    75  71  87 SW6       30.03R
MACON          PTSUNNY   78  71  79 SW8       30.03R
ROBINS AFB     CLOUDY    78  72  81 SW7       30.02R


CITY           SKY/WX    TMP DP  RH WIND       PRES   REMARKS
LAGRANGE*      CLOUDY    78  77  98 W6        30.04R
SYLVANIA*      CLOUDY    78  75  90 W3        30.05R
MILLEDGEVILLE* CLOUDY    77  75  94 CALM      30.03R
$$

GAZ099>101-110>166-011400-
SOUTH GEORGIA

CITY           SKY/WX    TMP DP  RH WIND       PRES   REMARKS
SAVANNAH       CLOUDY    78  73  84 W6        30.04R
VALDOSTA       PTSUNNY   80  75  84 VRB3      30.04R
ALMA           MOSUNNY   78  74  87 W3        30.04R
ST SIMONS      MOSUNNY   79  75  87 W7        30.03R
FT STEWART     CLOUDY    77  74  90 W2        30.02R
ALBANY         CLOUDY    76  73  91 S6        30.06R
HUNTER AFB     CLOUDY    77  77 100 W5        30.02R
MOODY AFB      MOSUNNY   80  74  81 W6        30.04R
BRUNSWICK      PTSUNNY   81  79  94 W6        30.05R


CITY           SKY/WX    TMP DP  RH WIND       PRES   REMARKS
BAINBRIDGE*    MOSUNNY   86  84  94 CALM      30.04R HX 108
MOULTRIE*      PTSUNNY   77  73  88 CALM      30.05R
VIDALIA*       CLOUDY    79  72  78 W6        30.05R
WAYCROSS*        N/A     82  79  92 W7        30.04R HX  91
DOUGLAS*       PTSUNNY   79  73  83 SW5       30.05S
$$



USA.gov is the U.S. government's official web portal to all federal, state and local government web resources and services.